Theta_e
327 327 328 330 331 334 335 336 338 340 344 343 344 344 345 348 349 346 346 347 348 348 349 347 343 345 352 349 352 351 345 341 341
326 328 328 331 333 334 337 337 338 339 344 344 344 344 345 348 350 351 349 349 348 348 350 352 348 348 352 353 350 352 345 344 342
326 328 329 330 333 334 336 339 340 341 342 344 346 346 347 348 349 351 352 351 348 346 349 351 351 350 351 349 353 352 350 345 345
324 327 329 330 332 335 335 340 341 342 343 342 345 349 349 348 350 352 353 351 351 351 350 350 343 344 343 346 349 352 349 348 346
323 328 329 331 334 333 334 342 337 335 345 345 346 348 352 351 351 352 353 353 354 354 350 351 347 345 342 345 348 349 347 344 343
323 326 328 329 330 329 336 331 330 331 329 332 349 349 351 353 354 353 353 353 353 353 353 352 352 350 349 350 350 348 342 339 337
323 326 326 325 326 332 329 330 327 330 331 333 350 351 351 351 352 354 354 353 353 352 352 351 350 351 353 353 349 342 338 338 338
321 324 321 320 324 329 333 329 329 329 331 333 351 351 351 351 352 353 352 349 347 351 350 351 353 352 351 350 349 341 339 339 338
322 324 326 322 321 327 339 331 331 334 336 342 351 351 351 351 351 351 350 349 346 345 347 353 352 350 352 352 352 337 339 339 339
324 325 325 319 322 325 334 343 334 334 345 349 347 346 347 347 346 344 341 343 344 347 350 351 351 349 349 348 345 335 337 341 339
323 322 323 323 322 331 337 343 346 348 348 346 345 344 344 343 342 341 348 350 350 351 351 349 348 348 345 343 345 334 334 338 339
330 335 338 332 336 339 345 346 349 348 347 346 345 344 343 345 347 348 349 350 349 348 347 342 340 344 342 342 341 330 330 332 336
338 339 342 347 348 347 347 348 348 347 346 345 344 344 346 349 349 350 350 348 343 341 340 340 344 344 343 336 334 323 322 328 339
339 339 340 349 349 347 348 349 348 346 345 344 346 348 351 352 353 351 346 340 340 341 341 341 339 340 333 332 327 330 321 323 339
339 342 346 344 349 351 352 350 348 347 345 349 353 351 348 346 343 341 341 341 342 340 340 339 338 332 330 332 329 322 323 321 323
332 335 335 333 336 345 350 350 350 348 347 351 345 340 337 336 339 340 342 340 337 339 339 337 329 327 328 322 322 320 318 316 316
324 327 331 337 339 345 344 347 349 349 349 345 339 336 334 337 339 338 338 342 343 335 328 325 328 326 320 317 316 316 315 315 316
327 329 332 335 336 340 343 345 345 347 345 343 338 337 337 337 337 337 326 316 317 322 317 324 324 319 316 315 314 314 308 305 311
327 328 331 333 342 344 343 344 340 338 339 340 339 340 339 338 333 331 323 319 316 309 307 305 305 307 312 308 305 302 299 299 302
325 332 333 340 342 343 344 340 338 340 339 338 339 339 339 333 329 327 322 318 316 313 311 305 303 302 300 301 299 299 298 298 301
Wind_Speed
19 18 16 18 17 17 17 17 15 14 14 12 12 10 9 7 7 5 5 5 4 4 4 4 3 4 5 5 5 4 4 2 3
20 21 16 18 17 16 17 16 17 17 15 14 12 12 7 7 6 7 6 6 4 3 4 4 4 5 5 5 5 5 5 4 5
18 17 17 14 15 16 15 16 17 15 13 16 13 12 10 9 9 6 7 6 6 6 5 4 5 6 5 4 5 6 6 4 4
15 15 14 13 11 14 13 9 7 6 7 8 7 10 8 7 6 8 6 6 6 6 4 5 5 5 5 4 5 5 5 6 3
13 14 13 12 10 10 11 15 14 10 7 3 4 5 6 8 7 6 6 6 6 6 6 4 6 4 5 6 6 5 1 7 7
14 13 7 9 9 11 22 19 19 9 18 10 6 7 7 7 7 6 7 6 6 5 4 4 4 5 6 7 6 5 7 9 7
13 15 16 10 11 18 22 23 22 12 18 8 10 10 9 8 7 7 6 6 5 5 4 4 4 4 6 5 3 9 10 14 13
10 9 11 10 12 18 23 26 24 20 20 11 8 9 8 7 6 6 5 5 4 4 3 4 4 4 5 4 6 8 11 11 10
12 13 14 7 9 17 24 27 23 18 15 10 10 10 9 7 6 6 5 4 4 4 3 2 0 2 2 3 3 17 17 14 9
15 15 12 8 10 15 19 24 24 24 15 13 11 9 7 6 6 6 5 5 4 4 3 2 1 1 1 1 4 15 18 19 8
10 9 9 9 6 8 12 16 17 11 12 9 11 8 7 7 6 6 6 5 4 4 3 3 1 1 1 2 1 13 14 17 9
7 6 7 8 8 7 8 15 14 13 12 12 11 8 8 7 8 7 5 5 4 3 3 3 2 2 1 3 5 2 13 9 7
8 6 4 9 12 12 13 10 14 15 14 13 10 9 8 7 7 7 7 6 6 2 2 3 2 2 4 6 5 9 11 6 2
8 8 8 10 12 10 9 9 12 12 13 13 10 8 7 7 7 7 7 7 4 4 3 3 2 5 6 6 6 9 12 6 3
13 15 15 13 4 10 11 8 8 9 9 8 9 8 8 7 8 6 5 7 4 4 3 1 2 6 5 4 6 11 14 9 4
5 5 2 17 12 4 8 12 8 8 6 10 10 8 8 6 7 6 6 6 5 3 2 4 4 5 5 4 4 4 10 9 9
7 8 10 13 15 12 12 9 9 8 6 9 9 9 8 6 7 6 4 4 3 4 4 5 5 5 4 3 4 4 5 5 5
6 6 7 3 7 10 11 13 14 11 11 7 5 6 5 5 4 5 8 8 5 4 4 5 8 4 4 4 4 3 5 5 5
3 8 7 3 6 16 15 20 16 14 13 14 10 6 3 1 5 6 8 10 11 20 14 15 15 12 8 3 4 5 4 2 3
3 7 6 6 12 13 14 17 16 14 10 10 6 6 4 2 2 7 9 8 10 12 9 15 15 13 11 10 5 8 8 6 5
Wind_Direction
198 203 192 196 191 184 186 185 179 178 184 190 188 186 196 196 180 176 204 219 197 200 205 218 215 207 193 196 195 189 168 192 202
197 208 195 200 196 193 188 182 189 184 184 193 191 192 185 192 188 176 194 212 211 206 201 241 211 229 213 204 193 185 181 203 210
197 203 206 196 202 198 191 190 189 184 187 192 189 190 190 193 198 188 189 175 200 211 222 224 230 201 210 217 209 198 194 207 216
188 189 200 201 190 195 188 192 162 178 191 184 179 189 183 177 189 203 186 190 197 211 219 201 211 204 214 238 233 230 219 226 226
191 189 187 195 152 157 100 102 82 20 356 300 233 213 183 185 186 200 182 202 213 197 219 201 202 193 233 228 232 233 305 67 71
195 185 183 158 166 105 112 112 102 2 279 275 226 182 190 188 187 193 203 201 204 207 213 220 213 203 225 238 230 91 106 94 82
191 194 190 188 123 121 126 133 125 154 260 230 207 183 186 192 190 192 195 203 205 210 205 214 238 245 252 250 90 112 128 143 177
189 213 195 186 144 134 144 144 155 169 214 194 178 173 175 188 184 185 181 188 210 219 190 210 232 239 244 260 127 152 159 190 199
187 201 218 195 139 143 158 166 173 180 216 190 166 175 178 167 177 169 167 168 177 170 184 199 335 349 312 12 122 170 178 189 228
197 188 197 195 191 157 161 175 181 193 178 156 164 155 158 165 150 143 154 170 182 181 166 187 173 78 15 4 170 192 197 203 227
188 169 169 194 169 153 159 161 179 163 154 151 132 140 148 144 142 150 156 154 156 158 161 149 147 94 358 322 310 198 213 216 224
180 155 159 169 168 126 146 160 155 152 127 134 137 148 153 151 145 142 147 154 173 172 140 131 153 157 26 29 29 225 234 219 226
65 64 74 133 135 142 136 148 146 148 147 136 148 155 155 148 149 148 154 164 172 163 156 149 126 77 57 70 34 12 24 215 208
69 52 37 116 120 119 121 134 145 144 141 151 154 136 143 151 148 151 150 158 160 152 122 94 67 74 78 73 36 22 20 110 105
124 118 99 20 59 124 122 97 110 131 145 130 120 139 142 149 137 138 151 156 141 96 98 104 53 106 80 42 41 34 33 35 39
161 82 152 106 286 291 108 111 123 134 148 125 128 134 134 137 130 145 165 140 114 121 107 98 92 93 89 55 16 17 24 20 9
169 162 162 169 168 149 116 119 105 95 122 127 138 134 129 138 136 129 92 83 112 114 115 104 100 96 97 75 35 13 8 3 351
170 104 80 277 124 103 118 94 76 70 57 27 80 90 108 115 103 101 87 64 22 63 43 100 118 106 103 93 51 6 343 332 357
105 97 99 95 95 100 110 101 103 96 82 65 25 21 4 122 123 112 103 102 83 42 50 70 73 78 93 49 59 338 5 55 4
128 114 126 133 111 116 114 125 140 157 127 91 91 349 305 314 146 135 129 118 116 110 53 65 71 72 70 64 61 19 24 39 24